Powrót do katalogu

VRSS-1

AktywnyNaukaSSO
NORAD 38782·PAYLOAD·🇻🇪 Venezuela

Wystrzelony Sep 29, 2012 z Jiuquan Satellite Launch Center

Loading…

Następne Przeloty (najbliższe 24 godziny)

TLE

ŚwieżeSource: Space-Track

Epoka: Sep 14, 2026, 14:12 UTC

1 38782U 12052A   26257.59181278  .00000114  00000-0  21547-4 0  9990
2 38782  97.6265 229.4011 0016665 308.8209  51.1515 14.80154150752830

Śledź VRSS-1 w czasie rzeczywistym z AllMySat

Download on the App Store